View from above orbital plane
|
View from above satellite
|
Ground track
|
The orbit data is extracted from the following two-line orbital elements,
1 31118U 07012B 21023.48176266 .00000022 00000-0 11762-4 0 9997
2 31118 97.9021 340.0398 0015747 25.9256 334.2735 14.69188126738229
Epoch (UTC): | 23 January 2021 11:33:44 |
Eccentricity: | 0.0015747 |
inclination: | 97.9021° |
perigee height: | 652 km |
apogee height: | 675 km |
right ascension of ascending node: | 340.0398° |
argument of perigee: | 25.9256° |
revolutions per day: | 14.69188126 |
mean anomaly at epoch: | 334.2735° |
orbit number at epoch: | 73822 |
The dashed part of the orbit path shows where the satellite is in the earth's shadow,
|
|